WD4LSS Weather Reports


Display with metric or nautical units.
time (UTC)temp
F
wind
direction
speed
MPH
gust
MPH
rain 1hr
in
rain 24hr
in
rain mn
in
humidity
%
barometer
mb
20260504151017 68 248 1.0 4.0 0.00 0.00 0.00 49 1017.9
20260504150517 68 315 3.0 8.0 0.00 0.00 0.00 50 1017.8
20260504141017 61 0.0 2.0 0.00 0.00 0.00 68 1017.5
20260504140517 60 270 1.0 3.0 0.00 0.00 0.00 68 1017.6
20260504130516 51 0.0 2.0 0.00 0.00 0.00 82 1017.3
20260504110536 38 0.0 0.0 0.00 0.00 0.00 92 1017.2
20260504100536 39 0.0 1.0 0.00 0.00 0.00 91 1017.3
20260504081516 41 0.0 0.0 0.00 0.00 0.00 89 1017.1
20260504081016 41 0.0 0.0 0.00 0.00 0.00 89 1017.1
20260504080516 41 0.0 0.0 0.00 0.00 0.00 89 1017.2
20260504050536 44 0.0 0.0 0.00 0.00 0.00 81 1017.3
20260504050015 44 0.0 0.0 0.00 0.00 0.00 81 1017.2
20260504045516 45 0.0 0.0 0.00 0.00 0.00 80 1017.2
20260504045016 45 0.0 0.0 0.00 0.00 0.00 80 1017.3
20260504044516 45 0.0 0.0 0.00 0.00 0.00 80 1017.2
20260504044016 45 0.0 0.0 0.00 0.00 0.00 80 1017.2
20260504043536 45 0.0 0.0 0.00 0.00 0.00 80 1017.1
20260504043016 45 0.0 0.0 0.00 0.00 0.00 80 1017.0
20260504042516 45 0.0 0.0 0.00 0.00 0.00 80 1017.0
20260504042016 45 0.0 0.0 0.00 0.00 0.00 80 1017.0
20260504041516 45 0.0 0.0 0.00 0.00 0.00 79 1017.0
20260504041016 45 0.0 0.0 0.00 0.00 0.00 79 1017.0
20260504040515 45 0.0 0.0 0.00 0.00 0.00 78 1017.1
20260504040016 46 0.0 0.0 0.00 0.00 0.00 78 1017.0
20260504035517 46 0.0 0.0 0.00 0.00 0.00 78 1017.0
20260504035017 46 0.0 0.0 0.00 0.00 0.00 78 1017.0
20260504034517 46 0.0 0.0 0.00 0.00 0.00 77 1017.1
20260504034017 46 0.0 0.0 0.00 0.00 0.00 77 1017.1
20260504033516 46 0.0 0.0 0.00 0.00 0.00 76 1017.1
20260504033037 46 0.0 0.0 0.00 0.00 0.00 75 1017.1
20260504032517 47 0.0 0.0 0.00 0.00 0.00 75 1017.2
20260504032037 47 0.0 0.0 0.00 0.00 0.00 74 1017.2
20260504031517 47 0.0 0.0 0.00 0.00 0.00 74 1017.2
20260504031037 47 0.0 0.0 0.00 0.00 0.00 73 1017.2
20260504030517 47 0.0 0.0 0.00 0.00 0.00 73 1017.3
20260504030017 48 0.0 0.0 0.00 0.00 0.00 73 1017.3
20260504025537 48 0.0 0.0 0.00 0.00 0.00 73 1017.3
20260504025017 48 0.0 0.0 0.00 0.00 0.00 72 1017.3
20260504024536 48 0.0 0.0 0.00 0.00 0.00 71 1017.2
20260504024036 48 0.0 0.0 0.00 0.00 0.00 71 1017.1
20260504023516 49 0.0 0.0 0.00 0.00 0.00 70 1017.1
20260504023016 49 0.0 0.0 0.00 0.00 0.00 69 1017.1
20260504022517 49 0.0 0.0 0.00 0.00 0.00 69 1017.0
20260504022017 49 0.0 0.0 0.00 0.00 0.00 69 1017.0
20260504021516 49 0.0 0.0 0.00 0.00 0.00 68 1016.8
20260504021017 50 0.0 0.0 0.00 0.00 0.00 68 1016.8
20260504020516 50 0.0 0.0 0.00 0.00 0.00 67 1016.8
20260504020016 50 0.0 0.0 0.00 0.00 0.00 66 1016.6
20260504015516 50 0.0 0.0 0.00 0.00 0.00 66 1016.5
20260504015017 51 0.0 0.0 0.00 0.00 0.00 65 1016.5
20260504014516 51 0.0 0.0 0.00 0.00 0.00 65 1016.5
20260504014036 51 0.0 0.0 0.00 0.00 0.00 64 1016.4
20260504013516 51 0.0 0.0 0.00 0.00 0.00 64 1016.3
20260504013017 52 0.0 0.0 0.00 0.00 0.00 63 1016.4
20260504012516 52 0.0 0.0 0.00 0.00 0.00 63 1016.4
20260504012016 52 0.0 0.0 0.00 0.00 0.00 63 1016.4
20260504011536 53 0.0 0.0 0.00 0.00 0.00 61 1016.3
20260504011036 53 0.0 0.0 0.00 0.00 0.00 60 1016.3
20260504010517 54 0.0 0.0 0.00 0.00 0.00 59 1016.2
20260504010017 54 0.0 0.0 0.00 0.00 0.00 58 1016.2
20260504005516 54 0.0 0.0 0.00 0.00 0.00 58 1016.2
20260504005016 55 0.0 0.0 0.00 0.00 0.00 57 1016.1
20260504004516 55 0.0 0.0 0.00 0.00 0.00 56 1016.0
20260504004016 56 0.0 0.0 0.00 0.00 0.00 55 1016.1
20260504003516 56 0.0 0.0 0.00 0.00 0.00 54 1015.9
20260504003016 57 0.0 0.0 0.00 0.00 0.00 53 1015.8
20260504002516 58 0.0 0.0 0.00 0.00 0.00 53 1015.8
20260504002016 58 0.0 0.0 0.00 0.00 0.00 51 1015.7
20260504001516 59 0.0 0.0 0.00 0.00 0.00 49 1015.8
20260504001016 60 0.0 0.0 0.00 0.00 0.00 50 1015.7
20260504000516 60 0.0 0.0 0.00 0.00 0.00 49 1015.6
20260504000016 61 0.0 0.0 0.00 0.00 0.00 47 1015.6
20260503235536 61 0.0 0.0 0.00 0.00 0.00 47 1015.6
20260503235016 62 0.0 0.0 0.00 0.00 0.00 46 1015.5
20260503234516 63 0.0 0.0 0.00 0.00 0.00 45 1015.6
20260503234016 63 0.0 0.0 0.00 0.00 0.00 43 1015.7
20260503233516 63 0.0 0.0 0.00 0.00 0.00 43 1015.6
20260503233016 64 0.0 0.0 0.00 0.00 0.00 40 1015.7
20260503232516 64 0.0 1.0 0.00 0.00 0.00 39 1015.8
20260503232036 64 0.0 1.0 0.00 0.00 0.00 38 1015.7
20260503231516 65 0.0 2.0 0.00 0.00 0.00 36 1015.7
20260503231016 65 0.0 1.0 0.00 0.00 0.00 37 1015.6
20260503230516 65 225 1.0 2.0 0.00 0.00 0.00 35 1015.7
20260503230016 66 0.0 4.0 0.00 0.00 0.00 36 1015.8
20260503225516 66 0.0 2.0 0.00 0.00 0.00 36 1015.7
20260503225016 67 248 1.0 4.0 0.00 0.00 0.00 35 1015.9
20260503224516 67 270 1.0 3.0 0.00 0.00 0.00 35 1015.8
20260503224016 67 0.0 3.0 0.00 0.00 0.00 36 1016.0
20260503223516 67 270 1.0 4.0 0.00 0.00 0.00 35 1016.0
20260503223016 67 315 1.0 5.0 0.00 0.00 0.00 35 1016.0
20260503222536 67 293 2.0 7.0 0.00 0.00 0.00 34 1016.0
20260503222016 67 293 1.0 8.0 0.00 0.00 0.00 35 1016.0
20260503221516 67 293 1.0 3.0 0.00 0.00 0.00 34 1016.0
20260503221016 67 293 2.0 5.0 0.00 0.00 0.00 34 1016.0
20260503220516 67 293 1.0 4.0 0.00 0.00 0.00 34 1016.2
20260503220016 68 293 2.0 7.0 0.00 0.00 0.00 33 1016.4
20260503215516 68 315 2.0 7.0 0.00 0.00 0.00 33 1016.3
20260503215016 69 270 1.0 8.0 0.00 0.00 0.00 35 1016.3
20260503214516 69 315 1.0 5.0 0.00 0.00 0.00 32 1016.5
20260503214016 69 270 1.0 4.0 0.00 0.00 0.00 32 1016.4
20260503213536 69 270 2.0 8.0 0.00 0.00 0.00 33 1016.6
20260503213016 69 315 1.0 6.0 0.00 0.00 0.00 34 1016.6
20260503212516 69 315 2.0 7.0 0.00 0.00 0.00 33 1016.7
20260503212016 69 270 2.0 6.0 0.00 0.00 0.00 31 1016.7
20260503211516 69 315 3.0 7.0 0.00 0.00 0.00 30 1016.8
20260503211016 69 293 2.0 7.0 0.00 0.00 0.00 32 1016.8
20260503210516 69 113 2.0 11.0 0.00 0.00 0.00 31 1016.8
20260503210036 69 293 1.0 4.0 0.00 0.00 0.00 31 1016.7
20260503205516 69 293 3.0 7.0 0.00 0.00 0.00 32 1016.9
20260503205036 69 248 3.0 9.0 0.00 0.00 0.00 32 1016.9
20260503204516 69 270 1.0 6.0 0.00 0.00 0.00 32 1017.0
20260503204036 69 293 1.0 4.0 0.00 0.00 0.00 33 1016.9
20260503203515 68 315 1.0 3.0 0.00 0.00 0.00 32 1017.0
20260503203016 68 315 1.0 6.0 0.00 0.00 0.00 31 1017.1
20260503202516 68 293 2.0 8.0 0.00 0.00 0.00 33 1017.1
20260503202036 68 315 4.0 8.0 0.00 0.00 0.00 30 1017.2
20260503201536 68 315 2.0 8.0 0.00 0.00 0.00 32 1017.3
20260503201016 68 293 1.0 3.0 0.00 0.00 0.00 29 1017.4
20260503200516 68 270 2.0 6.0 0.00 0.00 0.00 32 1017.4
20260503200016 68 270 2.0 6.0 0.00 0.00 0.00 31 1017.5
20260503195516 67 270 3.0 8.0 0.00 0.00 0.00 31 1017.7
20260503195016 66 248 3.0 9.0 0.00 0.00 0.00 32 1017.7
20260503194516 66 315 3.0 7.0 0.00 0.00 0.00 32 1017.7
20260503194016 66 315 2.0 7.0 0.00 0.00 0.00 32 1017.8
20260503193535 66 293 4.0 8.0 0.00 0.00 0.00 33 1017.8
20260503193036 66 270 3.0 9.0 0.00 0.00 0.00 32 1017.8
20260503192516 66 270 1.0 7.0 0.00 0.00 0.00 34 1017.9
20260503192016 66 293 2.0 5.0 0.00 0.00 0.00 31 1017.9
20260503191515 66 338 3.0 7.0 0.00 0.00 0.00 33 1018.2
20260503191016 65 248 2.0 8.0 0.00 0.00 0.00 36 1018.2
20260503190536 65 315 2.0 4.0 0.00 0.00 0.00 31 1018.2
20260503190016 65 0 2.0 6.0 0.00 0.00 0.00 35 1018.4
20260503185515 65 315 2.0 4.0 0.00 0.00 0.00 36 1018.5
20260503185035 64 225 1.0 3.0 0.00 0.00 0.00 33 1018.7
20260503184515 65 293 3.0 8.0 0.00 0.00 0.00 36 1018.7
20260503184016 65 293 2.0 6.0 0.00 0.00 0.00 35 1018.7
20260503183515 64 0 3.0 8.0 0.00 0.00 0.00 35 1018.8
20260503183036 64 315 2.0 9.0 0.00 0.00 0.00 38 1018.8
20260503182515 64 315 2.0 6.0 0.00 0.00 0.00 36 1018.9
20260503182015 64 293 2.0 5.0 0.00 0.00 0.00 36 1019.1
20260503181515 63 270 1.0 3.0 0.00 0.00 0.00 36 1019.0
20260503181035 63 270 2.0 6.0 0.00 0.00 0.00 39 1019.1
20260503180516 62 315 3.0 10.0 0.00 0.00 0.00 36 1019.1
20260503180015 62 315 3.0 9.0 0.00 0.00 0.00 34 1019.1
20260503175515 62 338 2.0 7.0 0.00 0.00 0.00 35 1019.2
20260503175035 63 270 4.0 11.0 0.00 0.00 0.00 35 1019.4
20260503174515 62 225 3.0 7.0 0.00 0.00 0.00 34 1019.3
20260503174015 62 270 2.0 8.0 0.00 0.00 0.00 36 1019.4
20260503173515 61 315 3.0 10.0 0.00 0.00 0.00 36 1019.5
20260503173035 61 315 5.0 12.0 0.00 0.00 0.00 36 1019.4
20260503172515 61 113 2.0 6.0 0.00 0.00 0.00 39 1019.4
20260503172016 60 338 2.0 6.0 0.00 0.00 0.00 36 1019.4
20260503171515 60 0 1.0 4.0 0.00 0.00 0.00 37 1019.6
20260503171035 60 248 2.0 5.0 0.00 0.00 0.00 36 1019.6
20260503170517 60 315 2.0 8.0 0.00 0.00 0.00 38 1019.8